Theta_e
303 303 304 304 304 304 305 305 305 304 303 298 295 295 291 289 290 301 304 306 307 295 284 287 291 289 289 296 295 296 296 294 294 293 293 292 292 290 289 289 288 289 288 289 287 287 285 290 287 290 293 293 294 294 293 293 294 290 286 288 287 303 277 278 279 281 285 289 289 289 289 287 285 284 284 284 282 285 280 276 278 277 277 279 275 272 276
303 303 304 304 304 304 304 305 305 304 303 298 296 290 290 291 291 297 304 305 304 292 284 284 282 287 293 294 293 296 295 293 291 291 291 291 289 290 290 290 290 290 290 289 287 289 282 290 290 289 292 292 297 295 294 294 292 291 289 286 289 283 281 279 275 276 279 282 286 285 287 286 281 282 282 284 285 283 283 281 279 277 279 277 276 271 275
303 303 304 304 304 304 304 305 305 304 304 302 292 291 291 290 294 296 297 300 301 289 289 289 282 288 291 291 289 291 292 293 294 293 290 292 290 290 288 292 290 290 290 288 289 291 287 285 290 291 291 293 294 295 295 296 293 299 298 301 293 282 281 278 275 272 271 272 272 274 278 281 281 283 282 283 285 284 281 279 275 275 280 279 273 271 278
303 303 303 304 304 304 304 304 304 304 304 303 293 291 289 289 281 288 292 292 295 295 298 294 291 286 286 283 287 290 287 291 293 293 292 292 292 290 290 290 291 289 288 287 287 288 291 287 287 287 287 290 293 293 296 296 295 305 307 300 293 283 283 278 275 275 275 278 281 285 284 281 280 284 283 283 283 282 281 277 272 274 276 274 279 282 282
303 303 303 304 304 304 304 304 303 303 303 303 291 288 291 289 285 282 283 291 293 292 294 293 294 287 290 282 288 285 287 289 291 294 289 292 291 290 289 288 286 285 286 284 285 286 286 288 286 286 287 290 292 292 293 293 298 305 301 299 284 281 279 283 282 282 282 283 284 286 285 283 283 283 283 282 281 280 278 275 280 279 277 276 281 281 280
303 303 303 303 304 304 304 304 304 303 302 304 291 286 286 283 283 288 289 286 284 286 287 293 292 291 291 286 289 286 286 287 284 290 292 293 292 285 288 287 286 286 286 285 281 283 283 284 280 286 286 286 288 288 291 290 294 297 290 294 289 283 279 284 284 283 283 284 285 286 286 285 284 284 282 281 281 281 280 280 282 280 274 275 281 280 280
303 303 303 303 304 304 304 304 303 303 301 302 290 285 284 285 284 287 291 285 290 292 293 292 291 288 290 286 288 286 286 285 288 288 288 289 289 289 279 284 285 285 286 283 280 282 279 280 283 283 284 284 283 283 285 289 289 290 289 290 288 284 280 286 285 284 284 284 285 286 286 285 285 284 283 283 282 281 281 281 280 280 279 280 281 281 280
302 302 303 303 303 304 304 304 304 302 301 298 293 289 284 284 283 284 286 287 286 288 290 292 289 286 290 283 286 287 286 286 287 289 287 281 286 290 285 285 285 285 285 284 280 282 284 285 281 286 285 282 284 283 284 284 287 288 288 290 289 285 280 288 284 280 283 284 285 286 286 285 283 284 284 283 283 282 280 280 281 283 281 280 281 280 280
302 302 303 303 303 304 304 304 304 302 300 293 290 289 290 287 287 288 283 281 284 288 287 289 287 285 287 284 286 287 286 286 289 287 290 287 286 288 285 287 286 286 285 284 283 286 285 286 286 287 287 282 288 283 284 286 284 285 285 287 287 285 281 283 280 277 280 283 283 284 285 285 284 283 283 283 281 279 280 278 280 277 279 279 280 279 276
302 302 302 303 303 304 304 304 304 302 300 292 289 288 292 289 289 290 283 279 285 280 284 287 287 283 286 287 286 285 285 287 289 283 289 290 289 289 288 288 285 284 284 283 284 287 287 288 288 288 289 290 289 288 288 288 285 283 283 285 284 281 281 279 277 276 274 279 281 281 280 281 279 277 282 282 282 281 282 282 283 282 279 275 275 276 281
302 302 302 302 303 303 304 304 304 303 298 292 291 289 291 289 286 286 281 280 281 281 280 283 284 287 289 288 287 289 287 288 288 283 283 290 289 290 289 287 284 281 283 286 290 290 290 290 290 289 289 288 288 288 288 289 287 286 285 281 281 281 279 277 278 274 273 280 278 278 276 269 270 280 285 286 282 282 280 279 281 283 282 280 281 282 283
302 302 302 302 303 303 304 304 304 304 301 294 292 290 292 292 288 283 277 280 278 280 280 280 282 285 285 287 288 286 286 287 287 290 286 287 288 289 288 286 284 280 288 290 290 290 292 291 290 289 289 288 287 288 288 287 286 286 284 285 280 280 278 276 275 271 274 274 274 272 268 268 281 284 285 286 285 284 281 282 282 283 283 283 282 283 283
302 302 302 302 302 303 304 304 304 304 303 297 292 291 293 294 288 283 279 279 278 279 277 280 284 285 286 287 286 287 288 289 289 290 288 287 286 288 288 287 285 286 290 289 289 288 286 285 284 284 285 285 286 287 288 287 285 286 283 284 281 277 278 275 275 270 271 269 267 267 266 280 283 284 284 286 285 282 283 281 282 282 282 283 281 283 283
302 302 302 302 302 303 303 304 304 304 304 301 293 292 293 292 288 284 280 277 279 280 280 278 283 283 284 284 285 286 287 286 286 287 285 287 285 286 288 290 289 291 290 290 287 285 282 280 279 279 282 280 281 282 286 285 287 286 285 285 284 282 279 278 275 276 271 267 266 267 278 280 281 280 282 282 281 282 278 274 278 282 282 281 281 282 282
301 302 302 302 302 303 303 304 304 304 304 303 292 291 293 294 291 287 285 279 280 281 282 278 280 282 283 283 284 283 283 283 284 283 286 288 286 288 289 290 291 290 290 287 283 283 280 278 276 274 277 275 272 275 282 282 285 286 286 284 283 283 281 277 278 274 270 269 266 269 269 267 274 278 282 284 285 284 281 279 276 282 282 282 282 280 281
301 301 302 302 302 303 303 304 304 304 304 303 294 290 292 294 291 288 285 279 276 277 280 283 284 283 282 282 284 282 279 277 281 279 281 283 285 287 289 291 291 290 289 286 283 282 280 278 274 268 272 274 278 277 276 280 280 284 285 286 286 284 282 279 279 273 271 269 267 265 265 266 269 277 281 284 284 284 281 277 275 281 280 281 281 280 280
301 301 301 302 302 303 303 304 304 304 304 303 293 290 293 295 293 289 285 281 281 279 282 284 286 284 279 279 283 281 282 279 280 277 277 279 283 285 287 290 289 289 286 282 281 281 280 278 278 277 277 280 275 274 278 279 278 278 283 284 283 282 278 275 273 271 271 269 268 267 266 270 279 281 282 284 283 283 280 269 267 279 280 281 281 280 280
301 301 301 302 302 302 303 304 304 305 304 304 296 290 292 295 295 290 287 278 278 280 282 286 285 280 280 281 280 283 282 280 281 278 278 281 281 282 285 286 284 287 287 280 279 277 277 276 274 274 273 281 282 278 269 278 275 275 278 278 277 276 277 277 272 270 273 272 268 273 275 279 283 283 284 283 285 282 273 267 271 281 282 282 281 280 281
301 301 301 301 302 302 303 304 304 304 304 303 297 290 290 294 295 291 285 281 279 280 283 286 288 285 287 287 284 285 285 283 281 277 277 276 280 285 285 285 286 280 283 277 278 276 273 274 279 278 274 276 280 274 279 273 273 278 277 275 276 274 273 275 275 273 271 269 271 274 276 280 284 284 285 284 282 274 270 276 281 281 282 283 282 282 282
300 300 301 301 302 302 303 303 304 304 304 304 297 288 291 292 294 292 288 282 279 280 283 286 287 286 287 285 281 281 281 282 279 278 277 275 282 283 278 277 281 282 279 279 274 277 273 272 275 278 272 276 278 283 275 276 279 276 277 278 274 276 274 274 273 274 271 271 270 271 269 279 284 285 283 286 277 277 283 284 284 284 282 282 282 282 283
300 300 300 301 301 302 302 303 304 304 304 304 300 290 290 292 294 293 291 283 277 278 281 286 288 286 287 286 286 286 284 282 282 281 282 280 283 277 270 271 277 278 276 275 272 273 275 271 275 275 278 277 277 277 274 274 277 281 280 280 278 281 275 276 276 280 272 272 271 271 278 281 286 284 278 282 284 285 285 284 282 284 282 281 281 282 283
300 300 300 301 301 302 302 303 304 304 304 304 300 290 287 291 294 295 294 288 282 283 285 287 289 288 289 290 289 288 288 287 288 286 283 281 283 281 280 281 282 280 282 278 275 272 277 276 277 272 272 274 277 273 275 267 270 277 280 279 272 281 279 279 274 279 275 274 277 282 285 284 286 286 285 286 288 287 287 285 284 283 283 283 281 283 283
300 300 300 301 301 302 302 303 304 304 304 304 299 289 287 291 292 295 287 285 283 284 285 284 284 286 290 290 291 290 291 291 290 287 283 281 281 280 281 279 280 285 283 280 280 278 278 277 273 277 273 276 273 271 274 272 269 275 272 279 277 281 281 281 279 277 282 283 283 285 284 285 285 286 287 286 287 287 286 285 284 285 285 284 283 284 283
300 300 300 300 301 302 302 303 303 304 303 303 300 289 289 291 292 291 288 284 281 283 283 283 280 280 282 286 289 291 292 291 292 291 288 284 278 278 278 282 284 281 279 283 279 281 277 275 278 277 272 277 275 269 267 269 270 277 272 273 278 280 279 277 275 278 275 271 280 280 281 283 284 285 285 285 285 286 285 284 283 283 283 283 284 283 284
300 300 300 300 301 302 302 303 303 304 304 303 300 296 293 289 290 290 284 282 283 279 277 278 279 287 290 289 288 288 290 292 293 290 288 287 283 279 281 286 286 284 283 284 282 280 276 275 277 271 270 279 276 270 275 269 272 275 268 272 275 277 280 276 276 275 269 271 279 280 281 282 283 282 283 284 285 285 285 284 284 284 284 284 284 283 283
300 300 300 300 301 302 302 302 303 303 303 303 301 291 289 289 291 289 289 286 280 278 279 278 280 287 288 290 289 289 290 288 288 292 290 290 287 286 285 287 286 286 284 283 278 277 277 274 271 273 272 275 278 272 275 276 276 276 274 275 279 278 280 271 277 276 278 279 280 281 282 282 282 283 282 282 282 283 284 284 284 284 283 283 282 282 282
300 300 300 300 300 301 302 302 303 302 303 302 297 292 291 290 289 292 288 288 283 280 277 277 278 284 289 288 290 289 290 288 288 288 290 290 289 287 286 283 283 282 281 279 280 277 277 275 273 276 276 278 279 279 278 275 276 272 273 277 278 277 275 277 274 271 270 272 278 281 275 272 278 281 283 284 284 283 283 282 283 282 282 282 281 281 281
300 300 300 300 301 301 302 302 303 302 303 301 296 292 291 288 290 291 289 287 285 279 277 275 278 285 287 287 290 286 288 290 287 287 286 288 288 286 284 283 281 284 281 280 279 278 275 273 277 275 274 276 276 274 277 276 275 274 276 278 278 276 278 274 268 267 268 275 279 280 278 278 279 282 283 283 283 282 283 282 282 283 282 281 280 280 279
299 300 300 300 301 301 302 302 302 302 303 299 289 289 289 290 290 292 294 292 285 281 278 281 281 282 279 283 290 286 287 288 287 285 286 286 286 285 285 285 284 281 280 278 278 277 277 276 276 277 277 278 274 271 274 270 266 270 275 278 279 281 280 278 277 277 279 279 278 279 279 279 282 283 283 283 283 283 282 282 282 281 281 280 280 280 280
299 300 300 300 301 302 302 302 302 302 301 290 286 281 281 288 287 292 294 295 289 284 280 277 277 279 283 287 286 286 287 288 287 288 287 285 285 284 283 283 284 285 282 281 278 276 276 278 276 277 281 282 276 270 266 270 268 275 279 281 281 281 282 282 281 280 280 282 281 281 280 280 281 283 283 283 285 283 281 282 281 281 281 280 280 280 280
300 300 300 301 301 302 302 302 302 303 300 285 281 278 276 277 285 291 297 294 290 286 281 281 280 279 280 284 285 286 286 287 286 285 286 285 284 285 285 284 282 284 280 280 279 278 276 275 275 278 281 283 276 269 271 270 270 275 280 280 281 281 281 282 281 281 283 282 282 282 282 282 282 282 282 281 281 282 282 282 284 287 284 283 281 281 281
300 300 301 301 302 302 302 302 303 302 294 288 284 282 281 283 285 288 297 296 293 288 282 277 275 276 276 280 283 287 288 288 287 285 283 285 285 283 282 284 282 282 284 277 279 277 277 274 275 277 279 283 278 269 273 268 266 274 279 280 280 280 281 281 282 283 283 282 282 282 281 280 280 281 280 281 281 281 281 281 282 282 286 283 282 281 281
300 301 301 302 302 302 302 303 303 301 293 294 298 300 300 300 300 299 299 291 288 281 280 277 275 277 275 280 284 287 289 282 281 282 282 283 284 281 280 282 280 282 290 281 276 276 275 274 274 275 278 280 274 273 271 267 271 275 278 281 280 281 282 282 282 282 281 281 280 279 277 279 280 281 282 281 281 282 281 281 282 284 284 283 282 281 281
301 301 301 302 302 303 303 303 303 301 296 290 288 289 292 299 297 299 291 288 285 283 280 278 275 276 276 279 281 282 287 283 280 279 278 282 283 281 279 280 280 280 277 278 278 278 276 277 275 273 278 275 274 271 269 273 274 277 279 280 280 281 281 281 281 282 282 282 281 279 279 279 282 281 281 283 282 283 284 282 283 282 282 283 282 280 280
301 301 302 302 303 303 303 300 288 290 287 287 287 288 289 299 301 301 295 287 278 279 278 279 278 273 273 272 270 276 285 283 279 279 279 280 282 282 280 278 277 276 279 281 275 274 275 277 276 275 270 272 273 271 269 274 277 278 279 280 280 279 280 281 281 280 281 282 280 280 281 282 281 280 281 282 282 281 281 282 284 284 281 279 279 280 280
300 301 301 303 303 301 292 295 289 287 284 286 288 297 301 305 302 290 289 290 285 276 274 275 275 274 271 270 270 277 285 280 280 280 280 278 279 280 279 276 273 275 279 275 272 275 274 279 277 271 268 272 269 271 274 277 279 280 280 281 281 281 281 281 281 281 281 281 281 281 281 280 281 280 280 280 280 280 280 281 283 283 281 279 280 280 279
300 300 302 300 292 291 285 287 291 291 289 292 297 302 302 301 294 293 289 288 290 287 280 272 275 276 276 272 272 277 280 274 279 277 277 279 277 275 276 274 271 277 276 271 270 273 275 280 271 270 271 268 268 274 276 278 280 281 280 280 282 281 280 280 282 281 280 280 281 280 281 280 280 280 280 279 280 279 279 280 280 280 279 279 279 279 280
300 300 290 287 285 282 284 286 288 293 300 300 299 290 287 288 282 282 284 282 284 291 279 279 274 275 278 277 275 280 280 275 278 277 274 276 276 276 276 275 274 277 270 268 271 277 275 273 273 270 266 273 276 278 278 279 280 280 282 281 281 281 281 281 282 281 280 279 280 280 280 280 280 279 280 279 279 279 278 278 279 280 281 281 281 281 280
295 288 285 283 284 282 282 286 295 299 296 294 288 284 282 281 279 279 278 280 280 280 277 278 277 277 278 278 276 282 283 279 274 274 274 277 276 272 274 270 274 273 269 268 271 278 271 266 265 269 268 271 277 279 280 279 280 282 282 283 282 282 281 281 281 281 280 280 280 280 280 280 279 280 279 279 279 278 278 279 279 281 282 282 282 282 281
287 286 282 281 281 282 289 293 297 293 289 284 281 280 279 280 278 276 279 277 277 277 277 277 279 279 280 279 279 276 282 280 275 273 272 274 280 273 274 273 273 272 266 265 269 275 271 268 265 266 265 269 275 277 280 280 281 281 281 281 280 281 281 282 282 280 281 280 280 280 279 278 280 281 280 280 280 278 278 279 280 281 281 282 283 283 282
286 285 282 280 283 285 288 292 290 285 282 279 278 277 276 276 278 278 278 274 272 275 278 277 279 281 281 278 279 276 282 283 279 277 275 274 277 278 271 270 273 271 266 266 270 272 267 267 263 266 267 270 276 279 280 280 281 281 280 280 281 281 281 280 281 281 282 281 281 281 280 280 280 280 280 280 280 278 277 278 279 281 282 282 282 283 283
289 287 288 291 293 294 292 286 282 282 280 281 276 273 275 276 277 277 275 273 272 272 279 279 276 277 278 280 280 279 280 283 278 275 274 273 278 274 270 271 272 266 265 266 270 269 268 266 263 263 265 274 276 278 279 281 281 281 281 281 281 281 280 281 281 282 282 283 282 281 280 280 280 280 280 280 280 279 279 279 280 281 282 283 284 284 284
299 297 295 291 288 283 283 280 281 278 273 273 270 270 273 272 275 274 274 276 275 278 278 283 281 281 284 282 281 282 280 283 281 276 274 271 276 275 271 268 267 267 266 270 270 264 266 264 262 267 274 276 277 278 279 281 281 280 280 281 281 281 282 281 282 283 282 282 281 281 281 280 280 282 281 281 280 279 278 279 280 280 281 281 282 282 282
292 291 287 283 283 281 281 275 282 280 276 274 270 269 270 270 272 273 274 274 277 278 280 281 279 280 277 280 280 280 280 282 282 276 276 276 275 271 269 268 267 268 272 267 265 267 264 262 268 272 276 277 280 279 279 280 280 280 281 281 281 280 280 281 281 281 282 281 280 280 280 280 280 280 280 280 280 280 279 278 279 280 280 280 280 280 281
283 280 280 277 277 280 278 270 277 274 270 272 274 270 272 270 271 271 274 279 281 281 284 283 282 282 281 283 282 281 281 277 279 275 273 274 270 269 269 267 267 269 269 265 263 262 265 266 270 274 276 277 279 280 279 279 281 282 281 281 281 280 280 281 281 281 281 281 282 281 281 280 280 280 280 279 279 279 279 279 278 279 279 279 279 280 281
281 280 279 273 272 275 275 270 272 271 274 276 274 276 277 277 277 278 280 282 281 281 283 283 283 283 282 282 281 279 279 278 276 275 276 272 269 267 269 271 272 269 266 261 262 263 265 271 273 275 277 278 278 277 278 279 281 281 283 283 283 281 281 281 281 281 282 281 280 280 280 280 280 280 281 281 279 279 278 279 278 279 278 279 280 280 281
282 282 280 277 272 275 277 270 270 272 277 278 277 278 279 279 281 282 284 284 282 282 283 284 283 283 281 280 281 280 280 280 277 279 275 270 269 272 277 271 268 265 265 262 260 258 263 271 272 274 276 277 276 276 278 279 281 282 283 282 281 282 281 281 281 281 282 281 280 280 280 281 280 280 280 280 281 280 279 278 278 278 279 278 279 279 280
280 283 278 270 269 273 274 274 277 277 278 280 279 279 280 280 280 280 283 283 283 283 283 283 281 281 281 282 281 276 275 277 276 274 275 274 275 271 267 268 266 266 264 263 264 264 270 273 275 277 279 279 276 278 279 279 279 281 282 282 281 282 282 282 282 282 281 281 282 282 282 281 281 281 281 281 280 280 278 278 279 278 278 278 279 279 279
282 279 276 273 275 276 275 275 278 278 278 278 278 278 279 280 280 280 282 281 281 283 282 283 280 280 277 279 277 275 275 277 273 274 278 273 269 265 265 263 262 265 266 268 272 272 272 276 277 276 278 279 278 280 280 279 279 280 281 282 283 283 283 283 283 283 282 282 282 282 282 282 281 281 280 279 278 279 279 279 279 278 278 279 278 278 279
282 279 280 277 275 274 276 277 279 276 277 277 277 277 278 279 279 281 282 282 281 282 283 284 284 281 279 280 275 276 275 275 276 276 272 269 267 267 267 264 264 267 265 269 270 272 276 277 278 279 279 278 280 281 281 282 281 280 281 282 283 284 284 284 283 283 283 283 283 283 283 282 282 281 281 281 280 279 279 279 278 278 278 278 278 278 278
285 281 279 278 277 274 276 274 273 275 276 278 278 278 278 279 279 280 280 283 284 283 282 279 280 279 278 276 273 270 273 277 275 272 268 266 268 269 267 267 268 269 271 274 275 276 277 278 277 278 280 281 281 281 282 282 281 280 280 282 283 283 284 283 284 284 283 284 284 283 283 283 283 283 282 281 280 280 280 279 279 278 278 278 277 278 278
283 278 278 279 281 281 281 279 277 279 280 281 280 280 280 280 280 283 282 282 280 278 274 276 278 277 276 275 276 278 280 277 273 270 270 269 272 270 267 272 276 277 277 276 278 280 280 279 280 281 283 284 284 283 283 283 282 281 281 281 281 282 283 283 284 284 284 284 284 283 284 284 283 282 280 280 279 279 279 279 279 278 278 278 277 277 277
Wind_Speed
25 26 27 27 28 29 30 30 28 26 25 9 7 3 3 3 1 4 9 14 1 3 3 2 1 3 2 2 2 1 1 2 2 2 1 2 4 2 3 3 3 2 1 0 1 3 1 1 5 3 0 1 1 2 2 7 5 4 1 0 1 4 2 3 2 4 4 3 3 2 3 2 5 5 2 3 3 0 4 1 5 6 1 2 1 1 3
25 26 27 27 28 28 29 28 29 26 21 6 5 2 1 1 2 5 10 15 1 5 2 2 3 4 5 1 3 2 3 2 2 3 1 0 3 1 1 5 1 1 1 3 2 1 1 3 2 3 2 1 2 3 6 4 1 2 1 2 2 1 1 4 2 2 2 3 6 4 5 6 3 1 3 2 1 3 1 4 1 5 2 4 7 4 2
26 26 26 27 28 28 28 28 28 27 21 11 1 2 1 2 1 2 7 14 8 5 1 1 1 3 1 3 3 2 1 4 7 4 2 3 2 1 2 0 5 2 2 3 1 6 2 1 6 1 2 0 3 6 5 7 3 1 5 4 2 3 1 2 2 5 5 3 2 3 1 1 2 1 4 4 6 3 2 1 3 3 0 4 4 2 4
26 26 26 27 27 28 27 28 28 28 24 18 2 1 2 3 2 5 5 7 6 4 1 1 2 4 3 1 1 2 2 4 5 5 4 3 2 4 2 2 3 4 4 5 7 7 8 5 1 5 4 2 3 4 6 5 2 4 11 4 5 2 1 3 3 4 5 6 5 2 3 2 4 2 3 3 2 3 6 5 4 2 3 2 2 4 5
26 26 26 26 27 27 27 28 29 29 26 20 2 3 2 1 5 3 5 4 7 4 7 10 6 3 2 2 2 5 3 2 3 9 2 6 2 3 10 5 4 3 4 3 4 4 2 7 5 6 3 3 1 5 7 6 11 8 4 5 5 3 4 2 4 6 1 1 3 1 3 5 1 2 2 3 2 1 4 1 1 4 8 1 1 1 4
26 27 25 26 26 27 27 29 29 30 28 24 3 5 5 5 2 2 1 2 4 6 8 10 9 12 7 3 1 3 6 9 3 5 4 1 5 3 5 12 7 2 1 2 4 5 3 5 3 5 4 3 7 4 6 6 7 4 2 3 5 3 2 1 4 3 4 1 3 5 8 5 3 3 2 3 1 4 5 0 1 2 2 8 1 3 4
26 27 25 25 26 26 26 28 28 29 28 19 4 7 4 4 0 1 3 3 4 1 2 4 6 12 12 0 7 7 9 8 4 1 3 6 7 6 3 5 9 8 5 4 3 2 2 3 3 2 5 2 3 4 5 4 9 6 2 4 1 5 0 1 2 4 4 4 4 6 11 4 8 6 4 2 8 5 5 4 2 5 6 5 9 10 7
25 26 26 25 25 25 25 27 27 28 26 11 10 7 3 5 3 5 5 1 2 5 2 3 10 9 13 4 10 5 7 8 6 6 6 2 3 3 7 3 5 9 10 7 5 1 2 1 1 1 1 4 4 1 1 3 6 4 2 0 1 5 2 3 2 4 2 3 4 7 10 8 6 4 5 5 5 8 6 4 5 10 7 4 6 11 7
25 25 25 25 25 25 25 25 27 26 21 7 7 3 4 2 1 0 2 6 6 5 6 5 9 7 10 9 9 6 12 6 6 6 4 5 2 2 2 1 2 4 8 8 4 1 1 2 3 4 1 1 1 2 2 1 3 6 3 2 2 4 1 2 3 4 0 2 4 6 9 12 9 4 5 4 4 6 4 4 3 1 7 2 7 7 2
25 25 25 25 24 25 25 24 25 24 16 5 3 6 3 1 2 2 1 4 5 4 4 5 4 7 4 6 8 5 9 8 4 3 5 7 6 1 1 0 6 4 8 7 4 4 3 6 7 5 6 5 5 3 2 0 0 3 2 0 2 1 5 3 3 5 2 1 0 4 4 5 4 3 3 2 6 5 5 4 7 3 3 5 7 3 0
25 25 25 25 25 24 24 24 23 21 11 7 5 4 5 5 4 4 3 5 6 8 3 8 7 2 1 5 6 11 12 13 10 4 3 3 6 7 3 3 5 2 4 3 3 3 6 5 6 3 3 4 4 4 3 4 2 2 0 1 1 1 5 2 1 4 2 1 1 1 2 1 3 2 1 2 4 7 11 5 5 7 4 3 3 3 1
24 25 25 26 24 24 24 23 23 21 13 2 3 2 3 1 0 2 3 7 2 5 6 4 3 2 5 6 1 2 6 9 9 5 3 3 5 6 7 5 4 4 3 5 4 2 4 2 2 2 2 3 3 1 3 1 3 1 2 1 1 2 3 2 2 4 2 1 2 2 1 5 1 4 2 4 5 14 15 8 6 5 6 7 7 6 5
24 25 25 25 25 23 23 23 22 21 18 6 3 7 5 2 1 2 4 6 5 6 5 3 3 3 4 7 7 4 3 2 6 7 6 5 7 8 5 3 3 3 6 7 5 3 1 0 2 0 3 5 2 4 1 2 5 5 2 1 3 1 3 2 1 3 2 2 2 2 3 1 2 2 4 4 2 5 13 11 7 6 4 2 5 2 2
24 23 24 25 24 23 22 22 22 21 21 10 5 4 5 4 3 3 2 4 3 3 1 1 7 9 9 7 4 5 5 11 6 3 5 4 4 7 5 5 4 7 7 1 3 2 2 3 1 3 3 4 1 1 1 7 7 8 7 3 1 5 3 3 1 1 4 3 3 0 1 1 1 0 1 0 1 1 2 7 1 2 2 2 2 2 3
23 23 24 24 23 22 21 22 21 21 21 15 1 3 6 7 2 1 1 4 3 1 5 4 5 4 3 4 5 7 6 4 8 6 3 2 3 2 2 7 8 9 4 2 3 3 2 2 1 1 2 2 0 1 2 1 1 4 5 4 2 3 6 3 5 3 6 7 3 2 1 3 7 4 3 3 3 2 2 7 0 2 3 1 1 2 3
23 23 23 25 24 22 22 22 21 20 20 17 4 3 3 4 1 2 2 2 3 5 6 2 3 2 0 2 3 5 3 4 5 2 6 5 3 6 5 9 8 6 5 5 2 2 2 2 1 2 0 0 1 1 1 2 3 3 4 6 7 7 5 4 7 3 4 3 6 4 5 5 4 3 4 4 2 2 3 7 1 1 3 2 1 4 4
22 23 23 24 24 23 21 21 21 21 20 17 6 4 7 8 6 2 2 3 6 2 4 3 0 1 4 5 4 4 3 3 3 3 4 5 5 4 9 10 5 7 8 5 6 5 5 4 1 1 1 1 1 0 1 2 2 5 8 5 10 9 4 3 3 2 1 5 4 3 2 1 1 4 4 5 3 2 3 2 5 0 3 2 3 5 4
21 22 22 23 23 23 21 21 21 21 21 20 7 1 4 5 6 1 4 4 5 2 3 2 4 5 5 0 0 2 1 3 3 1 1 2 2 4 5 6 10 5 4 5 3 4 3 3 3 2 1 2 0 2 0 0 1 2 1 2 4 5 4 5 1 3 2 6 1 2 0 1 2 3 4 8 1 4 5 7 5 2 0 1 3 4 2
21 21 22 22 22 23 22 20 20 21 21 19 9 1 2 5 7 4 6 4 5 4 5 3 0 2 1 2 2 0 0 0 0 1 4 4 2 4 2 3 2 4 8 3 4 3 2 1 1 1 1 5 3 1 1 3 2 3 3 4 5 4 1 1 4 5 2 1 5 3 0 1 3 4 2 4 1 4 5 2 1 4 2 1 3 4 1
20 21 21 22 22 22 22 20 20 20 20 20 8 1 5 3 5 4 3 3 1 3 2 2 2 3 1 4 5 6 4 6 2 5 2 0 4 5 1 2 4 3 6 3 3 1 3 1 1 1 3 1 1 0 3 1 1 2 1 1 3 2 2 1 1 1 2 3 4 3 2 1 6 7 3 5 3 1 1 2 1 1 3 3 1 2 1
19 20 21 21 21 21 21 20 20 19 19 20 10 3 6 4 6 4 1 2 3 3 3 3 1 3 1 3 2 5 5 5 2 3 1 2 2 1 2 1 4 2 2 2 2 1 0 2 3 1 1 0 4 3 0 1 3 3 2 0 3 1 2 1 1 1 2 2 1 1 1 3 6 3 4 2 2 2 3 3 1 1 2 2 2 0 0
19 20 20 21 21 20 20 20 19 19 19 19 13 2 5 7 5 4 1 3 2 2 0 3 1 1 0 1 3 4 5 5 3 3 2 3 4 3 3 1 1 1 0 1 3 1 3 1 0 2 3 2 3 2 0 2 2 4 3 3 3 5 2 1 3 2 1 2 3 2 1 1 5 6 5 2 1 1 2 3 1 1 0 1 2 0 1
19 19 20 20 20 20 20 19 18 17 17 17 10 3 2 7 9 7 2 1 1 1 4 4 2 3 3 1 1 3 0 1 4 3 3 4 2 3 3 2 2 0 0 1 1 3 1 1 0 2 2 1 1 2 6 4 1 2 2 2 3 4 4 6 7 4 6 7 5 3 2 3 4 3 1 2 1 0 3 3 2 0 1 1 2 0 0
18 19 19 19 20 20 19 18 19 17 17 15 7 2 4 4 6 6 5 5 3 1 4 6 5 4 1 2 3 2 2 1 1 0 1 3 2 1 2 2 1 2 1 2 2 1 1 1 0 1 2 2 3 3 2 4 1 0 2 3 3 1 0 2 6 4 4 1 1 3 4 1 1 1 1 2 1 1 1 1 1 2 2 1 0 0 0
17 17 18 19 19 19 19 18 18 17 16 15 10 3 1 3 4 5 3 1 4 3 1 4 2 1 3 4 2 1 1 1 1 2 3 5 5 3 3 0 1 1 1 1 1 3 3 2 2 2 3 1 3 0 1 3 2 1 2 2 1 1 1 7 1 3 2 3 4 3 3 2 2 1 0 1 0 1 2 1 1 1 0 1 1 0 2
17 17 17 17 18 18 18 18 17 17 16 15 7 2 2 2 5 2 5 3 2 2 2 1 2 4 3 4 1 2 0 2 2 1 3 2 2 3 4 0 1 3 2 2 2 3 1 2 1 1 3 1 1 1 0 1 2 0 3 1 1 2 2 1 1 3 1 2 2 1 2 1 2 1 2 2 2 2 1 1 1 1 2 2 3 3 2
17 17 16 16 17 17 17 17 17 16 16 15 4 1 0 1 2 6 3 1 1 1 3 0 3 7 4 4 4 3 2 2 1 2 3 2 3 2 3 2 2 3 5 3 3 3 3 2 2 1 1 0 1 0 0 1 1 1 1 2 2 2 2 0 4 4 0 3 2 4 4 2 3 1 1 1 2 3 3 0 1 1 1 1 2 3 3
16 16 16 15 16 16 17 16 15 16 16 13 4 2 0 2 3 1 2 2 3 2 1 2 2 5 3 1 3 4 3 2 4 4 1 1 4 4 4 2 2 1 2 2 3 3 1 3 1 1 0 1 2 1 2 0 3 4 3 2 0 2 2 3 2 4 2 4 3 4 2 1 2 3 1 3 3 3 3 2 1 0 1 2 3 1 3
16 16 16 16 15 16 16 15 15 13 15 10 3 2 1 0 2 3 4 2 4 4 1 2 2 2 1 2 5 3 3 2 2 2 2 1 3 2 1 1 1 3 3 3 3 1 0 1 1 0 0 2 2 1 3 1 1 1 2 2 0 1 2 2 3 4 0 2 3 3 2 1 0 1 1 0 1 4 3 1 1 3 4 3 3 2 0
16 16 16 16 16 15 15 14 14 12 11 5 3 2 2 1 1 3 4 4 2 2 2 2 2 1 2 2 3 2 2 3 3 2 2 2 3 3 2 1 1 1 2 0 1 0 1 0 1 1 1 0 1 1 2 1 2 1 1 1 2 2 1 0 5 3 2 2 2 3 3 3 1 0 1 1 1 3 3 1 3 4 2 3 1 0 1
17 16 17 17 16 15 14 14 12 11 8 3 2 1 2 1 1 1 4 4 2 1 2 1 2 3 3 1 0 2 3 2 0 1 3 2 0 0 0 1 1 1 0 0 1 0 1 0 0 1 1 1 3 1 3 2 0 1 3 3 3 3 3 2 1 2 4 3 2 1 2 0 0 3 3 2 2 2 2 1 1 3 2 1 1 1 4
17 17 17 17 17 15 14 13 11 8 1 1 1 1 1 2 2 2 3 2 1 1 1 2 2 2 1 2 1 1 1 1 1 2 1 2 1 3 2 2 1 0 1 1 0 0 1 1 1 1 0 0 4 1 2 3 3 3 2 3 3 4 3 4 2 1 0 3 5 1 0 1 0 3 2 2 1 2 4 2 1 0 1 2 2 3 3
17 18 18 17 17 16 15 13 11 6 3 5 7 6 8 10 10 7 1 1 2 1 2 2 0 1 0 1 4 2 2 2 2 4 2 1 0 1 1 2 2 1 3 3 0 0 2 2 1 0 1 0 1 1 2 2 4 5 5 4 4 4 4 2 1 1 2 3 3 3 3 3 2 2 4 3 2 2 3 3 3 3 3 3 3 5 5
18 19 18 18 17 15 13 12 9 6 2 2 1 2 3 3 1 3 3 2 1 0 1 1 0 1 2 4 2 3 1 1 2 1 2 3 0 1 1 2 2 0 2 1 2 0 2 1 1 1 1 1 1 2 1 3 4 4 4 4 4 3 2 2 1 2 0 1 0 1 2 3 4 3 3 3 3 1 1 2 2 2 3 3 3 4 4
19 19 19 17 15 12 8 3 1 2 1 0 1 5 3 3 4 5 4 1 1 1 1 0 1 0 2 3 1 2 1 1 1 0 0 3 1 1 1 1 2 2 3 1 1 0 1 3 4 2 3 2 1 1 3 5 4 3 2 4 2 3 2 2 1 2 1 1 3 3 4 6 6 4 3 2 1 1 2 1 1 1 3 3 3 4 4
20 20 18 16 7 1 1 2 3 2 2 0 2 5 9 2 4 3 1 1 1 1 1 1 0 1 2 0 0 2 0 1 1 1 1 1 3 1 2 1 1 3 0 1 2 1 1 1 1 1 1 1 4 4 6 7 8 7 6 6 6 8 5 7 4 2 0 1 4 4 5 3 5 4 3 3 1 2 1 1 0 0 1 3 4 4 4
19 19 16 6 2 1 2 0 1 2 1 5 10 11 4 4 2 2 2 1 1 1 1 1 0 3 4 2 1 3 2 1 2 2 3 2 1 2 2 1 1 2 1 2 1 0 3 1 2 1 1 3 3 4 5 5 8 9 6 5 6 4 1 2 4 6 4 4 4 3 4 4 3 2 2 1 1 0 1 0 1 1 4 4 4 4 4
18 12 2 2 1 1 0 1 1 5 9 10 6 2 2 2 0 1 1 1 1 1 1 2 1 2 0 1 1 2 2 1 1 1 2 1 1 1 0 0 1 0 1 1 2 1 1 1 0 2 3 5 5 5 6 5 5 3 5 5 4 4 5 5 5 5 4 1 0 1 1 2 2 2 3 2 2 1 2 3 3 3 3 4 5 4 4
8 2 4 3 1 1 1 1 4 13 7 2 2 0 1 1 1 0 0 0 1 0 1 2 4 2 3 1 3 1 1 0 1 2 1 1 1 3 1 1 2 1 1 2 3 2 1 2 1 1 3 3 4 2 0 3 4 5 5 5 5 5 5 5 5 5 6 5 5 6 6 6 4 4 3 2 3 3 3 3 3 4 4 4 5 4 4
5 6 2 2 0 2 3 4 10 5 1 0 1 1 0 1 1 1 0 0 1 1 1 1 3 4 5 5 4 2 0 1 1 1 1 3 0 1 1 1 1 1 1 0 4 2 1 1 1 1 4 3 3 2 0 3 4 4 4 4 4 5 5 6 5 3 4 4 3 4 4 4 5 5 4 4 4 4 4 4 4 4 4 5 6 4 3
3 1 2 1 3 2 5 7 5 1 1 1 1 1 1 0 1 1 0 0 1 2 1 2 0 0 0 2 2 2 2 1 1 2 2 1 2 2 2 0 1 1 1 0 3 1 1 0 1 1 4 3 5 3 3 2 4 4 3 3 4 5 5 4 3 3 3 3 1 1 3 3 3 3 4 4 5 5 5 5 4 5 4 4 5 4 3
2 2 2 3 4 4 4 1 1 0 1 0 1 0 0 1 1 1 1 1 1 1 1 1 1 2 2 4 3 3 0 1 1 1 1 0 1 1 1 1 1 1 1 3 0 2 1 1 1 3 5 6 6 2 4 5 4 3 3 3 4 4 4 4 3 2 3 5 4 4 3 3 4 4 4 4 4 5 5 4 5 5 5 5 4 4 4
11 7 2 2 1 1 0 1 1 1 1 1 2 1 1 1 0 0 2 1 1 1 2 0 1 1 0 2 1 0 1 1 0 1 1 1 1 1 1 1 1 0 3 1 1 1 1 1 1 6 6 6 4 4 4 5 4 4 4 4 4 5 5 5 5 5 4 4 5 5 4 4 4 6 4 4 3 2 3 4 5 4 4 3 4 4 3
0 1 1 1 0 2 1 1 0 1 1 0 1 1 1 2 4 3 1 3 2 2 1 0 1 1 2 2 1 0 1 1 3 1 0 0 1 0 0 0 2 3 0 1 1 1 4 2 6 4 5 5 3 3 4 4 4 3 2 3 2 2 3 2 1 1 3 2 2 3 1 3 4 3 2 2 4 5 5 4 4 4 4 3 3 2 2
1 2 1 1 1 1 1 2 2 2 0 1 1 1 0 0 4 1 2 4 1 3 1 2 2 1 0 1 2 1 1 1 1 1 1 0 0 0 1 2 2 1 1 2 1 2 1 2 3 4 5 5 5 5 4 4 5 7 5 2 3 4 3 4 4 4 4 4 5 4 4 4 3 3 3 4 4 4 4 4 3 2 3 3 2 1 1
3 1 1 3 3 3 1 0 0 1 1 1 1 2 1 4 2 4 6 1 2 3 2 0 2 2 1 0 1 2 0 2 1 1 1 1 1 2 3 0 1 1 1 1 0 2 4 6 5 6 6 6 5 4 4 4 4 3 4 5 6 5 5 5 5 5 5 4 4 4 4 3 3 3 5 4 3 3 4 4 3 4 3 2 2 1 2
1 1 1 1 1 2 1 1 0 1 1 1 2 2 2 4 5 6 4 1 3 4 2 0 1 2 3 1 0 2 1 1 1 2 1 1 1 1 1 1 1 0 1 1 2 3 5 6 6 6 7 6 5 4 4 4 4 5 7 5 4 6 6 5 5 6 6 4 4 4 4 4 4 4 3 4 5 4 4 4 4 4 4 5 3 2 1
1 1 1 1 2 0 0 1 0 2 1 2 1 1 2 1 3 5 6 3 4 3 2 0 1 2 1 1 1 3 2 1 1 3 1 1 0 1 1 0 0 1 2 2 5 5 4 5 5 5 5 5 4 4 4 4 4 5 6 5 5 6 6 7 6 7 5 5 6 5 5 5 4 4 4 4 5 6 3 4 4 4 3 2 1 1 0
1 0 0 1 1 0 2 1 3 4 5 2 2 1 1 5 5 6 7 3 3 4 2 1 1 2 3 0 1 0 1 0 1 2 1 1 1 2 1 1 0 1 4 5 6 5 5 6 5 4 4 4 3 5 5 4 5 6 7 8 8 9 8 8 8 8 6 6 5 5 5 6 4 4 4 3 3 6 4 3 4 4 4 4 4 3 1
1 1 0 0 2 3 3 1 0 4 3 4 3 3 1 1 3 6 3 3 2 0 0 1 2 1 1 0 1 1 1 1 2 0 1 1 2 1 1 1 3 3 3 3 3 6 6 4 3 5 4 4 4 5 5 5 6 7 6 7 7 5 7 8 8 7 7 7 7 8 7 5 4 4 4 6 6 3 2 3 4 4 4 4 4 4 3
0 1 3 3 4 4 0 2 1 4 6 5 3 4 1 3 2 5 1 1 3 2 2 1 1 0 0 0 1 0 2 1 1 2 3 3 1 2 3 3 5 6 6 5 5 5 5 5 5 4 4 4 5 5 5 6 6 6 5 5 6 6 6 6 8 8 8 8 7 6 6 7 7 7 6 3 2 2 2 2 3 4 5 4 4 4 3
1 1 3 3 3 4 4 2 0 5 8 8 5 5 2 4 3 5 1 1 2 1 4 1 1 1 1 2 3 2 0 1 1 0 1 3 2 2 3 5 7 6 6 4 4 4 5 4 5 5 4 4 5 6 6 5 4 4 4 5 5 5 6 6 7 7 8 6 6 7 7 6 5 3 3 3 2 1 3 5 5 4 4 5 5 4 4
Wind_Direction
355 353 352 349 345 346 346 342 339 344 348 358 349 337 358 45 218 261 336 357 278 69 37 302 72 185 234 306 288 235 305 241 248 307 277 294 212 242 194 220 176 231 220 255 84 116 29 167 180 179 232 253 206 202 278 112 39 77 340 51 285 92 67 70 322 328 323 337 313 348 59 68 35 14 39 65 23 249 167 176 182 135 168 98 34 77 247
356 354 353 350 347 346 345 342 339 340 354 334 301 21 48 272 295 325 343 341 303 77 99 349 323 310 317 297 260 211 214 202 316 229 274 139 326 278 332 338 17 114 67 64 41 349 130 342 116 134 103 344 14 48 33 45 75 73 215 130 257 74 306 123 101 43 350 342 343 2 346 47 81 41 324 340 70 75 135 106 63 91 215 166 119 187 269
358 356 354 351 348 348 346 343 340 340 342 352 162 344 280 297 291 40 335 345 37 95 219 117 263 266 273 299 305 309 267 227 226 225 28 15 301 1 356 263 319 355 63 67 22 30 92 146 357 100 87 240 3 360 66 87 73 134 178 140 88 84 184 94 152 169 167 179 232 249 295 295 289 34 346 358 44 10 40 42 7 112 263 97 117 184 252
360 358 356 353 351 349 346 346 344 341 341 354 104 242 50 15 37 318 3 353 15 79 214 138 319 327 323 29 290 338 309 333 19 95 91 90 38 68 305 331 41 19 35 39 23 5 12 67 343 32 6 343 15 344 340 6 123 126 84 69 80 117 86 85 154 153 182 201 196 242 115 34 66 303 32 330 27 31 91 104 81 153 185 66 240 163 154
1 360 358 355 353 351 349 349 348 346 340 351 123 10 96 82 52 337 345 329 23 18 2 7 10 307 231 75 352 2 341 288 21 11 86 3 11 49 43 0 31 337 53 99 60 6 341 358 69 11 346 293 359 319 63 40 8 346 57 39 80 61 57 12 83 52 143 169 98 190 128 123 126 88 348 341 12 55 79 112 174 158 84 23 271 21 88
2 1 360 358 355 353 351 353 351 350 343 342 59 42 2 56 299 67 305 70 346 11 7 1 339 3 16 54 354 18 28 34 37 322 30 32 32 82 354 28 32 0 122 117 77 337 16 22 26 319 11 340 338 24 13 62 333 14 45 17 111 131 95 249 90 51 56 64 101 105 76 61 82 68 29 47 356 67 99 201 25 96 140 186 190 84 84
2 3 1 359 357 354 353 356 354 352 346 341 57 65 329 109 254 238 329 70 354 57 239 11 22 23 2 301 27 36 33 36 14 354 314 24 8 40 93 5 7 21 26 91 107 19 78 11 331 55 323 9 325 24 342 343 7 23 60 26 91 90 118 222 121 113 65 60 105 115 101 88 54 34 37 54 80 65 80 72 20 100 104 112 114 92 82
4 4 2 0 358 356 356 358 358 354 345 336 59 50 43 11 25 329 352 68 41 352 316 36 41 29 359 26 1 22 17 35 5 21 39 36 350 11 82 58 37 39 45 48 79 7 98 105 65 313 59 328 34 46 135 292 327 25 48 60 335 106 234 143 97 78 39 7 48 90 107 113 87 41 47 51 83 70 35 63 51 84 70 68 87 81 56
4 4 3 2 359 357 357 360 2 360 349 37 39 50 45 275 187 302 26 30 346 347 18 28 62 48 354 14 352 15 6 9 3 57 11 69 71 11 110 181 80 37 55 60 86 192 199 227 226 239 190 131 259 74 270 71 331 347 359 21 327 68 161 52 67 91 69 2 69 93 97 90 89 53 16 11 36 70 350 52 311 112 149 145 85 66 42
4 4 4 2 360 357 358 359 5 5 357 79 11 23 315 333 304 49 109 71 349 23 321 18 66 44 348 349 351 3 345 359 27 69 35 32 27 21 144 308 81 13 40 37 345 300 213 247 246 230 236 238 262 246 233 6 23 311 24 276 63 84 125 97 83 96 253 269 145 147 95 67 34 331 307 96 73 113 119 65 41 36 123 76 108 178 210
4 5 4 3 1 359 358 358 1 10 18 36 26 356 347 13 336 342 51 83 354 7 352 35 50 36 319 24 6 355 10 9 21 69 50 3 12 355 22 48 76 96 31 303 266 242 261 257 279 287 260 251 255 284 319 335 262 201 345 46 21 62 89 119 126 135 224 289 341 359 65 168 228 241 266 206 156 143 90 45 22 10 58 135 151 126 7
5 5 5 5 4 1 359 358 360 7 23 5 171 344 338 286 84 89 73 78 354 336 54 63 6 330 23 348 42 43 14 11 5 358 70 42 23 13 24 31 66 41 305 295 327 294 266 274 321 314 254 314 288 262 160 263 293 269 162 128 112 93 73 122 135 97 193 335 22 46 221 231 330 9 24 105 123 102 96 84 50 30 44 62 61 41 36
4 5 6 6 6 4 360 358 359 2 9 8 51 20 322 347 125 91 104 105 46 349 21 21 347 20 11 24 27 10 343 341 15 13 40 29 6 24 25 20 20 298 324 302 348 19 55 287 327 204 291 331 341 22 198 327 328 20 3 48 118 148 114 178 59 111 70 60 50 132 250 204 57 348 57 125 91 82 83 54 16 16 17 74 66 38 350
4 6 6 7 7 5 1 360 358 358 2 11 17 352 326 6 35 39 72 95 43 325 248 287 4 8 7 12 2 321 359 18 338 13 35 348 25 8 356 7 305 279 281 259 46 68 47 33 54 9 318 4 4 17 12 75 60 32 4 333 133 143 94 104 130 107 164 186 109 193 111 47 254 44 278 236 202 347 121 120 14 344 322 45 100 53 24
4 5 7 8 8 6 2 360 359 358 358 3 23 329 5 11 39 125 186 87 123 9 34 50 306 300 338 356 5 17 25 343 17 341 311 292 29 324 296 317 319 327 320 77 359 41 128 103 35 55 321 52 86 242 320 91 305 70 32 6 83 147 167 226 154 247 120 124 84 55 78 199 236 238 269 322 263 281 177 109 28 328 339 333 26 44 13
3 5 6 8 9 7 3 0 359 358 1 358 38 358 356 8 334 92 108 134 122 28 333 294 245 256 341 1 340 49 357 354 338 316 354 354 329 335 329 339 328 345 27 62 58 81 46 89 207 91 142 218 245 51 320 353 352 322 51 33 59 32 70 125 151 166 87 90 134 187 168 241 206 258 266 280 254 240 137 65 133 4 346 300 134 70 60
1 3 4 6 9 7 3 1 359 358 358 8 348 347 18 3 18 4 62 37 72 129 240 283 299 105 74 353 5 17 6 16 330 25 347 346 320 308 311 334 317 26 16 74 9 44 22 25 51 140 254 242 48 194 307 27 7 337 341 15 31 41 10 34 68 85 173 145 123 190 189 171 284 255 286 301 306 145 79 98 254 314 327 354 87 76 62
359 1 1 3 5 7 4 1 0 359 359 358 10 349 324 358 7 52 59 94 104 34 312 323 38 37 39 257 45 294 51 6 16 26 112 285 332 359 327 343 350 337 43 80 360 54 30 47 42 29 68 341 268 49 71 44 17 317 6 343 19 1 348 50 133 136 115 104 106 55 342 277 335 312 300 331 331 109 134 206 221 210 164 21 92 86 76
357 359 359 0 2 5 4 1 1 360 360 1 347 32 332 2 357 51 118 70 76 82 291 296 122 107 173 80 124 106 119 185 245 82 330 4 351 310 272 260 31 351 1 83 52 58 68 323 338 45 56 329 23 88 297 39 302 342 32 20 15 11 46 340 63 31 37 110 104 131 192 236 349 281 9 319 45 190 216 228 184 141 144 179 124 106 117
355 357 357 358 360 2 3 2 1 1 1 2 20 85 268 321 7 23 69 97 84 87 316 345 15 55 354 87 47 41 7 22 28 101 79 275 288 352 34 3 334 54 358 51 45 315 89 4 269 349 28 332 309 214 52 65 41 57 338 348 105 307 75 357 52 315 46 39 86 101 137 336 4 307 23 9 108 131 116 111 19 154 140 133 141 126 198
355 355 355 356 358 0 2 2 1 1 0 2 8 18 343 335 16 9 58 135 110 66 334 292 34 4 59 77 155 141 116 91 77 69 234 217 264 83 93 204 269 2 1 63 84 340 76 339 339 22 225 102 294 48 83 304 355 358 86 70 87 354 94 21 5 358 120 50 89 178 29 295 323 72 123 7 103 144 143 100 30 347 167 145 139 132 203
357 357 356 357 358 360 0 1 1 0 1 360 2 24 14 324 341 359 4 99 97 107 212 283 246 259 227 200 180 179 145 153 190 159 129 33 349 91 163 87 347 106 265 107 31 9 3 228 15 48 18 330 358 81 100 76 35 301 343 48 36 346 161 206 146 341 122 174 129 168 251 315 13 61 86 83 14 66 158 137 176 136 1 190 110 98 344
357 358 358 358 358 359 359 359 358 0 360 359 7 67 0 323 338 341 63 47 333 350 353 3 357 353 0 337 232 203 284 43 111 74 122 109 24 15 56 46 350 273 12 102 139 146 199 99 191 155 61 28 117 26 17 109 150 351 51 323 138 21 94 102 87 75 88 57 85 132 160 94 58 36 87 141 159 5 132 157 133 226 216 153 134 193 202
354 355 356 357 356 356 356 356 357 358 358 359 15 42 327 326 316 351 12 67 87 43 345 8 58 346 327 330 301 352 44 336 299 109 168 126 107 310 329 269 195 25 0 271 180 119 205 118 242 127 108 244 85 52 92 28 17 232 52 349 343 295 129 59 116 176 77 123 93 113 148 109 168 146 339 337 336 294 178 133 150 163 153 113 210 160 267
352 352 352 353 352 352 351 352 355 355 356 358 353 324 255 353 354 18 78 44 360 74 128 315 346 235 293 271 275 2 229 182 40 79 67 78 123 136 147 130 165 103 300 297 79 48 38 72 2 44 97 278 104 307 259 107 313 97 71 280 36 346 73 72 86 68 113 199 177 215 222 195 201 195 252 275 314 7 12 72 125 123 47 56 353 356 5
349 349 350 348 348 349 349 349 350 351 350 356 7 30 50 338 318 51 87 74 105 107 87 311 281 310 327 20 29 269 243 78 16 342 52 90 142 146 164 214 27 24 94 72 71 94 101 48 67 99 98 305 93 129 133 175 168 175 123 212 237 256 19 137 113 95 352 356 317 345 142 323 303 337 316 281 226 148 104 47 61 67 66 10 359 34 15
345 346 346 346 344 344 345 344 346 346 345 349 4 11 126 299 347 43 61 346 73 337 33 298 275 302 360 341 275 342 20 82 62 40 26 14 44 61 74 71 74 4 48 10 28 116 64 91 91 59 156 249 73 111 136 21 82 112 53 283 341 51 42 246 61 76 298 189 207 132 129 258 248 276 274 266 221 160 166 149 65 80 64 7 63 23 9
342 343 342 342 340 338 339 339 341 343 341 347 354 4 173 77 356 11 93 107 101 175 182 257 314 286 312 236 300 345 337 74 106 100 87 12 48 49 68 80 89 38 358 62 360 13 23 53 340 238 195 299 54 320 16 138 55 36 7 310 167 112 194 131 138 154 227 243 230 190 162 182 209 178 243 241 219 150 138 156 160 28 46 113 111 65 349
337 339 338 336 334 332 332 333 336 341 342 347 9 36 2 310 348 11 51 57 100 97 103 242 298 356 39 247 331 354 1 47 66 81 100 66 55 55 101 210 199 151 92 83 114 109 131 247 192 112 301 214 98 283 45 29 66 162 236 284 327 269 146 140 175 143 272 214 219 171 141 188 212 209 203 239 180 136 131 163 131 130 139 144 141 163 166
334 334 332 328 326 326 325 326 332 340 347 5 46 50 36 322 331 27 24 50 81 117 79 45 57 237 294 333 299 319 340 360 28 35 1 347 9 9 70 112 71 99 101 163 150 5 240 185 295 290 294 60 106 184 76 177 112 241 283 298 273 337 33 132 153 131 194 192 191 178 174 198 225 138 129 67 87 142 115 75 121 137 159 163 153 243 244
332 329 324 321 320 319 318 320 327 336 354 38 73 54 43 40 309 282 21 30 52 112 124 115 224 281 343 267 137 310 302 313 15 320 300 316 337 280 295 85 52 114 52 13 42 217 128 1 38 308 341 96 115 100 163 124 161 286 230 222 228 196 161 158 220 167 132 165 140 102 101 149 99 100 45 52 39 99 98 34 32 147 169 182 289 337 344
330 325 319 316 314 311 311 312 318 331 4 94 96 171 178 191 222 231 13 28 47 51 62 33 345 3 273 313 286 265 355 346 56 13 335 25 336 353 10 62 232 53 139 141 212 64 248 214 119 282 84 353 70 96 72 83 152 233 222 237 230 199 173 139 134 108 116 142 117 103 357 309 87 186 197 203 152 127 114 109 65 294 79 54 9 1 332
327 322 316 311 307 305 304 307 309 300 239 235 245 278 274 270 267 280 347 23 51 126 124 87 158 225 33 253 307 328 14 22 11 21 322 299 243 5 324 353 22 54 350 82 320 210 219 139 82 53 265 17 98 98 109 170 211 229 205 192 179 174 177 174 148 169 174 197 144 177 219 213 197 173 146 143 119 121 109 79 35 4 2 13 344 342 339
323 318 313 307 300 298 302 305 305 294 357 26 24 346 296 274 304 100 98 77 112 138 78 109 17 356 264 309 78 278 28 70 286 43 356 305 183 81 269 28 350 93 312 83 258 61 327 72 194 228 326 18 50 86 280 259 243 220 196 205 179 158 125 107 119 133 174 159 130 158 182 172 134 128 110 105 85 72 137 116 77 356 321 331 329 320 309
322 317 310 305 302 302 309 321 32 54 110 290 244 250 256 281 143 137 131 121 74 346 24 341 110 57 345 359 36 271 286 80 339 226 129 277 27 190 242 60 321 53 288 105 38 128 179 237 168 101 238 326 59 206 239 240 255 225 182 182 185 124 81 98 261 244 251 160 84 88 112 124 119 124 145 134 150 150 99 42 73 33 322 313 312 306 311
320 315 313 313 320 28 73 47 54 50 27 314 268 289 303 266 119 76 101 101 126 150 102 247 75 202 148 153 326 277 2 36 273 326 235 280 349 6 95 115 20 264 198 78 213 356 231 236 103 284 285 79 225 193 226 200 198 200 191 190 190 172 185 188 184 189 153 106 107 115 114 114 130 164 169 194 159 46 57 138 153 44 325 302 288 291 308
320 315 316 331 33 42 28 179 294 94 217 245 269 288 278 117 52 72 18 31 359 100 149 169 57 238 166 221 247 281 57 340 334 6 333 22 250 281 47 43 219 277 38 0 4 241 260 67 96 130 188 186 245 233 232 210 187 184 196 207 197 210 199 169 165 138 109 71 69 109 143 147 155 161 143 135 124 35 70 70 212 205 245 260 277 292 286
319 320 9 28 37 51 354 352 9 300 310 299 320 35 3 13 87 341 2 40 275 41 336 74 216 254 324 94 237 251 69 284 55 58 309 239 33 313 24 105 238 112 305 252 250 190 83 42 204 175 260 250 249 260 248 221 217 183 172 180 182 184 181 173 151 124 119 103 300 212 116 161 171 182 167 227 227 225 220 235 230 219 221 244 257 265 290
342 9 41 23 89 230 189 244 324 333 320 283 44 71 325 15 62 14 267 265 26 312 282 131 240 193 140 114 278 289 155 133 27 31 76 277 106 307 20 56 301 64 312 16 303 41 323 329 344 18 281 296 331 289 279 191 175 173 177 180 174 183 173 179 177 153 173 194 202 193 172 179 187 214 224 215 234 244 240 228 245 253 249 257 271 279 284
25 25 16 354 44 251 276 302 344 332 20 39 321 102 240 328 95 273 277 57 328 265 101 250 214 175 187 178 185 276 326 74 302 280 208 306 11 139 260 97 264 87 271 109 252 31 111 276 285 51 293 282 257 258 164 177 166 189 186 188 180 181 175 172 206 214 181 202 180 184 184 174 175 185 195 209 203 220 254 258 246 250 259 265 274 288 277
16 8 4 339 263 303 307 316 328 45 66 43 10 359 64 351 279 189 100 20 182 231 186 179 352 223 319 88 115 200 285 88 169 133 115 250 250 84 54 228 245 78 297 273 276 66 70 66 345 193 240 235 234 222 170 188 204 193 199 198 179 177 186 203 211 174 151 144 196 235 201 185 176 196 199 199 196 213 222 229 245 249 257 270 275 273 264
225 200 221 257 281 285 310 344 66 32 8 100 115 287 252 222 281 5 133 127 258 252 304 150 277 204 237 186 201 144 24 184 120 102 94 344 290 131 222 300 9 101 252 237 133 53 75 231 302 292 263 258 254 230 169 192 220 197 207 193 188 180 189 184 176 216 192 172 196 208 219 191 202 218 216 204 212 223 234 244 255 264 254 262 268 274 278
289 281 207 275 330 315 185 28 309 99 99 4 37 23 342 40 288 137 294 284 287 91 274 124 213 188 304 65 56 100 197 211 151 313 77 228 280 56 91 18 55 357 238 293 65 50 21 238 237 250 258 276 264 230 215 199 199 203 212 192 194 196 179 180 184 193 206 189 189 201 207 207 218 226 221 210 212 251 259 237 236 247 264 268 275 282 282
161 94 76 351 1 287 79 19 280 35 2 80 88 61 335 10 316 0 359 289 300 313 280 44 279 88 238 304 153 290 1 356 56 76 20 304 86 233 60 206 219 240 75 40 50 187 227 221 210 229 269 292 280 218 203 214 211 201 220 224 234 224 206 178 142 152 227 232 250 250 207 208 232 258 230 214 204 220 246 261 249 234 249 285 285 281 282
55 0 17 14 19 272 58 315 319 109 78 296 115 142 161 222 258 228 239 251 150 259 272 114 116 78 276 280 36 352 118 204 323 99 247 102 7 320 112 253 250 32 71 265 326 325 351 285 277 285 283 286 261 238 215 199 186 186 186 182 207 215 203 189 207 197 210 204 219 215 221 230 228 259 265 247 230 214 219 243 247 194 227 234 262 315 310
62 123 27 52 346 320 99 178 340 22 305 137 132 200 235 252 215 256 257 242 302 312 344 38 71 101 216 239 145 236 338 82 50 247 192 70 104 269 243 206 89 56 359 44 356 232 223 241 259 266 260 262 260 246 224 210 202 160 139 183 212 205 215 208 209 206 216 213 216 195 224 230 233 254 268 268 272 261 231 237 206 186 189 195 236 252 298
16 5 89 105 107 271 95 119 262 192 166 214 217 192 207 236 242 236 254 278 278 222 203 161 137 183 193 277 201 333 34 62 203 262 79 58 198 253 36 91 269 166 163 277 249 252 268 257 244 248 264 274 272 236 216 206 188 185 199 204 190 204 209 213 215 216 228 218 218 220 229 233 241 244 269 302 285 258 240 219 203 189 171 199 217 229 257
58 268 76 96 247 223 115 264 235 300 268 201 246 247 260 266 3 331 309 288 273 314 264 283 293 331 310 300 99 201 231 176 179 287 178 206 32 39 9 24 297 242 173 168 232 222 232 251 251 264 262 255 234 216 213 201 199 203 209 213 209 209 208 210 218 230 226 220 222 223 230 233 238 246 249 253 271 280 242 200 191 189 197 198 176 219 179
162 112 109 208 215 221 242 241 32 329 283 290 284 338 8 14 322 287 284 303 304 280 220 155 209 107 275 243 136 17 277 305 128 244 70 35 118 216 165 224 193 288 260 184 224 216 222 242 247 248 265 264 228 194 216 216 203 201 210 214 215 211 205 207 216 221 220 221 224 222 229 231 226 235 247 259 266 270 234 181 172 176 182 177 190 200 218
72 336 9 75 0 310 242 199 27 267 306 327 345 316 238 268 287 285 283 337 288 8 5 35 85 103 248 36 291 344 259 250 190 287 81 219 208 212 86 287 230 193 255 238 225 240 247 263 290 295 269 246 237 205 204 217 209 216 220 220 221 207 204 207 219 223 218 217 219 221 224 223 227 214 213 224 228 238 187 162 177 181 185 194 178 184 194
311 144 232 181 174 223 97 306 271 290 301 285 279 276 294 291 237 274 251 289 322 19 26 245 242 92 309 16 97 314 250 172 106 205 162 204 207 137 180 214 240 212 229 228 225 249 268 260 233 253 283 278 254 245 228 220 217 219 217 216 217 213 216 212 217 221 223 223 222 222 224 225 222 213 216 205 212 209 189 217 198 195 185 191 199 175 190
179 240 255 258 224 227 235 255 331 231 249 263 267 245 176 250 240 254 249 73 14 355 267 248 118 96 69 228 232 214 334 39 241 61 1 275 168 156 215 206 239 228 223 242 268 255 239 227 210 216 228 249 255 240 239 242 241 241 226 224 217 215 217 217 217 219 222 225 218 217 226 227 222 205 165 146 130 142 199 226 219 210 204 186 207 190 174